ATLAS 5 CENTAUR DEB *, 43950

Orbit data source: Space-Track

ATLAS 5 CENTAUR DEB *, 43950 is space debris in HEO originally from a launch on Wed, 17 Sep 2014 UTC launched from the Air Force Eastern Test Range (AFETR). Debris objects in space refer to the collection of defunct objects orbiting the Earth. Examples of debris include non-operational satellites, rocket bodies, and fragments generated from explosions, collisions, or faulty payload assembly.

Loading next visibility...
Identifier
43950, 2014-055D
Orbit
HEO
Country
Flag of USUS
Related business
Flag of USUnited Launch Alliance/Lockheed Martin (US)
Manufacturer
Unknown
Mission
Spacecraft
Bus & Motor
Unknown
Mass
Unknown
Launch date (UTC)
2014-09-17 (11 years ago)
Launch vehicle
Unknown
Launch site
Air Force Eastern Test Range (AFETR)
Object type
Payload
Rocket body
Debris
Shape & HBR
Unknown shape, 1.1 m
Radar Cross Section
Small (<0.1 m²)

Expand to show TLE details & history
Last TLE update: 11 hours ago

TLE from 11 hours ago
0 ATLAS 5 CENTAUR DEB *
1 43950U 14055D   26072.77984341 -.00000064  00000-0  00000-0 0  9997
2 43950  22.0070 108.7926 5166858 240.0128  59.1074  1.95817217 53817
Epoch: 2026-03-13T18:42Z
TLE epoch observation values (Epoch: 2026-03-13T18:42:58.470Z)
Latitude
-0.00001°
Longitude
16.72229°
Altitude
20,296.387 km
Speed
3.888 km/s
True Right ascension
07h 15m 30s
True Declination
0° 00' 00"
Sunlit
Object was in daylight at epoch
Visualization orbit readout
Latitude
Unknown
Longitude
Unknown
Altitude
Unknown
Speed
Unknown
Apparent Right ascension
Unknown
Apparent Declination
Unknown
Sunlit
N/A
Visualization observer readout
Local Sidereal Time
09:48:14
Azimuth
Unknown
Elevation
Unknown
Doppler factor
Unknown
Orbital elements
Apogee altitude
34,557.056 km
Perigee altitude
6,666.463 km
Semi-major axis
26,989.897 km
Eccentricity
0.51669
Inclination
22.007°
RAAN
108.7926°
Arg. of periapsis
240.0128°
True anomaly
119.99384°
Mean anomaly
59.1074°
Eccentric anomaly
88.70374°
Mean motion
0.48949 °/min
Orbital period
735.46 mins
BSTAR
0
Loading maneuver chart data...
Computing Atmospheric mass density...

Documentation

Showing up to 5 results
|